Airfield :
LOGIN :

Register | Disclaimer

   EN    FR    IT 

 










Legend :    VFR   Marginal VFR   IFR   Intensive IFR   Very Intensive IFR
Visi :
Ceiling :
>= 8 km
>= 3000ft
5 to 8 km
1000 to 3000 ft
1500m to 5 km
500 to 1000 ft
800 to 1500m
200 to 500 ft
< 800m
< 200 ft
Symbols :   Thunderstorms  Fog  Heavy snow  Heavy precipitations  Wind > 20 kt
SIGMETs :     Misc.  Thunderstorms  Icing  Turbulence  Mountain Waves  Volcanic Ashes







- Airport Elevation : 1470 ft


LSMD - Dubendorf Military

CURRENT METAR :
  • 181720Z AUTO VRB02KT 9999NDV NCD 16/09 Q1019 RMK

EXPIRED METARs :
  • 181650Z AUTO VRB01KT 9999NDV NCD 16/10 Q1018 RMK
  • 181620Z AUTO VRB02KT 9999NDV NCD 18/10 Q1018 RMK
  • 181550Z AUTO 10004KT 070V130 9999NDV NCD 19/09 Q1018 RMK
  • 181520Z AUTO 11005KT 080V140 9999NDV NCD 19/10 Q1018 RMK
  • 181450Z AUTO 11006KT 060V150 9999NDV NCD 19/09 Q1018 RMK

Expired Forecast.
No reported NOTAMs for that airfield.



MET'MAP, your aeronautical weather chart ! - Copyright ORBIFLY December 2007 - Disclaimer

ORBIFLY MET'MAP TEAM :

Programming & Development : Alexandra Zaïnal
Concept & Development : Baudouin d'Aumeries
Co-Development & Prog : Marc-Olivier Méhu
Technical & hardware support : Manuel Goepfert

Contact : metmap@orbifly.com




SOURCES & CREDITS :

   NOAA